Flag for Germany Weather past 2 weeks in Regensburg, Bavaria, Germany

Now
68 °F

Overcast.


Feels Like: 68 °F
Forecast: 44 / 73 °F
Wind: 3 mph from West

Location: Regensburg

Current Time: Jul 30, 2015 at 8:45:15 PM

Latest Report: Jul 30, 2015 at 8:00 PM


Visibility: 44 mi

Pressure: 29.96 "Hg

Humidity: 35%

Dew point: 39 °F

Location of RegensburgLocation

Historic Weather in Regensburg — Graph

°F

Regensburg temperature yesterday

Maximum temperature yesterday: 74 °F (at 1:00 PM)
Minimum temperature yesterday: 56 °F (at 5:00 AM)
Average temperature yesterday: 61 °F

Past Weeks' High & Low Weather Summary

 TemperatureHumidityPressure
High97 °F (Jul 21, 4:00 PM)95% (Jul 30, 7:00 AM)30.11 "Hg (Jul 30, 7:00 AM)
Low49 °F (Jul 30, 5:00 AM)15% (Jul 22, 6:00 PM)29.65 "Hg (Jul 27, 3:00 PM)
Average72 °F58%29.90 "Hg
* Reported Jul 15 7:00 PM — Jul 30 7:00 PM, Regensburg, Weather by CustomWeather, © 2015

Note: Actual official high and low records may vary slightly from our data, if they occured in-between our weather recording intervals... More about our weather records

Advertising

Regensburg weather history for previous 24 hours

 ConditionsComfort  
Time TempWeatherWind HumidityBarometerVisibility
7:00 PM
Thu, Jul 30
71 °FOvercast.3 mph31%29.94 "Hg43 mi
6:00 PM71 °FPartly sunny.3 mph31%29.94 "Hg43 mi
5:00 PM76 °FOvercast.3 mph31%29.93 "Hg34 mi
4:00 PM71 °FOvercast.5 mph31%29.94 "Hg43 mi
3:00 PM74 °FPartly sunny.6 mph35%29.93 "Hg37 mi
2:00 PM73 °FOvercast.5 mph29%29.94 "Hg22 mi
1:00 PM70 °FOvercast.3 mph36%29.96 "Hg37 mi
12:00 PM67 °FOvercast.2 mph42%29.97 "Hg43 mi
10:00 AM63 °FSunny.1 mph58%29.98 "Hg25 mi
9:00 AM58 °FSunny.1 mph70%30.00 "Hg16 mi
8:00 AM52 °FSunny.2 mph88%30.01 "Hg13 mi
7:00 AM49 °FSunny.2 mph95%30.01 "Hg13 mi
5:00 AM49 °FClear.1 mph90%30.00 "Hg28 mi
4:00 AM51 °FClear.1 mph85%29.99 "Hg31 mi
3:00 AM52 °FPassing clouds.2 mph83%29.98 "Hg37 mi
2:00 AM53 °FClear.3 mph82%29.98 "Hg43 mi
1:00 AM54 °FClear.5 mph78%29.97 "Hg40 mi
12:00 AM55 °FClear.3 mph74%29.96 "Hg43 mi
11:00 PM
Wed, Jul 29
57 °FClear.6 mph69%29.93 "Hg43 mi
10:00 PM58 °FClear.5 mph69%29.90 "Hg43 mi
9:00 PM60 °FClear.3 mph69%29.87 "Hg43 mi
8:00 PM63 °FSunny.3 mph67%29.85 "Hg43 mi
Weather by CustomWeather, © 2015

See weather overviewHow to use our weather pages